Regional Weather Roundup
Issued by NWS Cleveland, OH

Home | Current Version | Previous Version | Graphics & Text | Print | Product List | Glossary On
Versions: 1 2 3 4 5 6 7 8 9 10 11 12 13 14 15 16 17 18 19 20 21 22 23 24 25 26 27 28 29 30 31 32 33 34 35 36 37 38 39 40 41 42 43 44 45 46 47 48 49 50
000
ASUS41 KCLE 202300
RWRCLE
OHIO REGIONAL WEATHER ROUNDUP
NATIONAL WEATHER SERVICE WILMINGTON, OH
600 PM EST FRI JAN 20 2017

NOTE: "FAIR" INDICATES FEW OR NO CLOUDS BELOW 12,000 FEET WITH NO
SIGNIFICANT WEATHER AND/OR OBSTRUCTIONS TO VISIBILITY.

OHZ001>008-015>018-024>027-034-035-043-044-210000-
   NORTHWEST OHIO

CITY           SKY/WX    TMP DP  RH WIND       PRES   REMARKS
DEFIANCE       CLOUDY    46  45  96 S3        29.71R FOG
FINDLAY        CLOUDY    50  47  89 SW5       29.70R
TOLEDO EXPRESS CLOUDY    45  45 100 SW5       29.71R
TOLEDO EXEC    CLOUDY    46  45  96 W3        29.72R FOG
LIMA           CLOUDY    50  50 100 SW3       29.72R
$$

OHZ009>014-019>023-028>033-038-089-210000-
   NORTHEAST OHIO

CITY           SKY/WX    TMP DP  RH WIND       PRES   REMARKS
CLE-HOPKINS    MOCLDY    53  48  83 VRB3      29.75R
CLE-LAKEFRONT  FOG       44  44 100 S3        29.72R VSB 1/2
CUY CO. ARPT   FOG       50  48  93 W9        29.73R VSB 1/8
LORAIN-ELYRIA  MOCLDY    49  46  90 W6        29.73R
ASHTABULA      CLOUDY    49  49 100 S6        29.73R
AKRON-CANTON   MOCLDY    51  48  89 CALM      29.73R
WOOSTER        NOT AVBL
MANSFIELD      CLOUDY    52  50  93 SW6       29.73R
YOUNGSTOWN     LGT RAIN  52  50  93 SW6       29.74R
$$

OHZ042-051>053-060>062-070>072-077>081-210000-
  SOUTHWEST OHIO

CITY           SKY/WX    TMP DP  RH WIND       PRES   REMARKS
CINC-COVINGTON MOCLDY    57  48  72 SW7       29.73R
CINC-LUNKEN    CLOUDY    57  50  77 SW7       29.75R
HAMILTON       MOCLDY    58  50  75 S3        29.74R
DAYTON         NOT AVBL
WRIGHT-PAT AFB NOT AVBL
DAYTON GENERAL MOCLDY    56  49  77 SW6       29.73R
WILMINGTON     FAIR      53  48  83 SW6       29.73R
$$

OHZ036-037-039>041-045>050-054>059-063>069-073>076-082>088-210000-
  CENTRAL AND SOUTHEAST OHIO

CITY           SKY/WX    TMP DP  RH WIND       PRES   REMARKS
COLUMBUS       MOCLDY    58  49  72 SW5       29.73R
OSU AIRPORT    FAIR      55  50  83 S3        29.73R
BOLTON FIELD   CLEAR     52  48  87 SW5       29.74R
RICKENBACK AFB NOT AVBL
NEWARK         MOCLDY    55  49  80 S5        29.74R
MARION         CLOUDY    54  48  80 SW8       29.73R
LANCASTER      FAIR      54  49  83 CALM      29.75R
ZANESVILLE     MOCLDY    56  48  74 SW5       29.75R
NEW PHILLY     CLOUDY    57  49  74 CALM      29.75R
$$




USA.gov is the U.S. government's official web portal to all federal, state and local government web resources and services.